Flag for U.S.A. Weather past 2 weeks in Tempe, Arizona, U.S.A.

Now
53 °F

Passing clouds.


Feels Like: 51 °F
Forecast: 47 / 62 °F
Wind: 7 mph from Southeast

Location: Phoenix Sky Harbor International Airport

Current Time: Mar 2, 2015 at 8:35:06 PM

Latest Report: Mar 2, 2015 at 7:51 PM


Visibility: 10 mi

Pressure: 29.95 "Hg

Humidity: 83%

Dew point: 48 °F

Location of TempeLocation

Historic Weather in Tempe — Graph

°F

Tempe temperature yesterday

Maximum temperature yesterday: 77 °F (at 2:51 PM)
Minimum temperature yesterday: 61 °F (at 3:51 AM)
Average temperature yesterday: 67 °F

Past Weeks' High & Low Weather Summary

 TemperatureHumidityPressure
High79 °F (Feb 19, 3:51 PM)86% (Mar 2, 8:51 AM)30.16 "Hg (Mar 2, 8:51 AM)
Low48 °F (Feb 25, 6:51 AM)8% (Feb 17, 3:51 PM)29.57 "Hg (Feb 27, 4:51 PM)
Average64 °F42%29.89 "Hg
* Reported Feb 15 6:51 PM — Mar 2 6:51 PM, Tempe, Weather by CustomWeather, © 2015

Note: Actual official high and low records may vary slightly from our data, if they occured in-between our weather recording intervals... More about our weather records

Advertising

Tempe weather history for previous 24 hours

 ConditionsComfort  
Time TempWeatherWind HumidityBarometerVisibility
6:51 PM
Mon, Mar 2
54 °FPartly cloudy.8 mph80%29.93 "Hg10 mi
5:51 PM55 °FPartly sunny.9 mph80%29.93 "Hg10 mi
4:51 PM55 °FMostly cloudy.3 mph74%29.92 "Hg10 mi
3:51 PM54 °FCloudy.No wind80%29.90 "Hg10 mi
2:51 PM52 °FLight rain. Mostly cloudy.No wind83%29.89 "Hg7 mi
1:51 PM53 °FLight rain. Cloudy.8 mph86%29.88 "Hg10 mi
12:51 PM53 °FLight rain. Cloudy.12 mph83%29.90 "Hg7 mi
11:51 AM53 °FRain. Fog.14 mph86%29.91 "Hg4 mi
10:51 AM53 °FLight rain. Mostly cloudy.13 mph86%29.91 "Hg10 mi
9:51 AM53 °FLight rain. Mostly cloudy.17 mph86%29.90 "Hg7 mi
8:51 AM54 °FLight rain. Partly sunny.14 mph86%29.86 "Hg10 mi
7:51 AM64 °FBroken clouds.16 mph58%29.82 "Hg10 mi
6:51 AM64 °FOvercast.8 mph58%29.82 "Hg10 mi
5:51 AM64 °FMostly cloudy.9 mph58%29.82 "Hg10 mi
4:51 AM64 °FMostly cloudy.7 mph58%29.83 "Hg10 mi
3:51 AM64 °FMostly cloudy.7 mph61%29.83 "Hg10 mi
2:51 AM64 °FMostly cloudy.3 mph58%29.85 "Hg10 mi
1:51 AM65 °FOvercast.9 mph54%29.87 "Hg10 mi
12:51 AM65 °FPassing clouds.7 mph56%29.88 "Hg10 mi
11:51 PM
Sun, Mar 1
66 °FPartly cloudy.7 mph56%29.89 "Hg10 mi
10:51 PM67 °FMostly cloudy.5 mph53%29.89 "Hg10 mi
9:51 PM68 °FPartly cloudy.7 mph49%29.88 "Hg10 mi
8:51 PM70 °FPassing clouds.8 mph44%29.86 "Hg10 mi
Weather by CustomWeather, © 2015

See weather overviewHow to use our weather pages